Regional Weather Roundup
Issued by NWS

Home | Current Version | Previous Version | Text Only | Print | Product List | Glossary On
Versions: 1 2 3 4 5 6 7 8 9 10 11 12 13 14 15 16 17 18 19 20 21 22 23 24 25 26 27 28 29 30 31 32 33 34 35 36 37 38 39 40 41 42 43 44 45 46 47 48 49 50
000
ASUS43 KLOT 220212
RWRIL

ILLINOIS REGIONAL WEATHER ROUNDUP
NATIONAL WEATHER SERVICE CHICAGO/ROMEOVILLE IL
800 PM CST SAT JAN 21 2017

NOTE: "FAIR" INDICATES FEW OR NO CLOUDS BELOW 12,000 FEET WITH NO
SIGNIFICANT WEATHER AND/OR OBSTRUCTIONS TO VISIBILITY.

* THESE STATIONS ARE NOT UNDER NWS QUALITY CONTROL. THEY ALSO MAY NOT
  REPORT WEATHER SUCH AS PRECIPITATION OR FOG.

ILZ001-002-007-009-015-016-024-220300-
NORTHWEST ILLINOIS

CITY           SKY/WX    TMP DP  RH WIND       PRES   REMARKS
MOLINE         CLOUDY    43  40  89 W3        29.57R
STERLING*      CLOUDY    42  41  96 W6        29.58R FOG
SAVANNA*       CLOUDY    41  40  98 SW5       29.57R FOG
$$

ILZ003-004-008-010-011-017-018-220300-
NORTH CENTRAL ILLINOIS

CITY           SKY/WX    TMP DP  RH WIND       PRES   REMARKS
ROCKFORD       CLOUDY    44  41  89 CALM      29.58R
FREEPORT*      CLOUDY    40  40  99 SW3       29.58R FOG
ROCHELLE*      CLOUDY    41  41 100 W6        29.59R FOG
DE KALB*       SNOW      41  41  99 NW9       29.58R VSB 1/4
$$

ILZ005-006-012>014-019>023-220300-
NORTHEAST ILLINOIS

CITY           SKY/WX    TMP DP  RH WIND       PRES   REMARKS
CHICAGO-OHARE  CLEAR     46  41  82 W6        29.56R
CHICAGO-MIDWAY PTCLDY    51  42  71 SW5       29.57R
AURORA         FOG       39  37  92 NW8       29.57R VSB 1/4 WCI  33
LANSING*       FOG       40  40 100 CALM      29.57S VSB 1/2
JOLIET*        PTCLDY    40  40 100 CALM      29.57R FOG
WAUKEGAN       CLEAR     45  42  89 W5        29.56R
DUPAGE AIRPORT CLEAR     43  39  86 NW8       29.56R
KANKAKEE*      CLEAR     45  44  97 CALM      29.58R
WHEELING       CLEAR     43  41  93 W3        29.58R
MORRIS*        PTCLDY    44  43  95 CALM      29.56R
ROMEOVILLE*    PTCLDY    45  44  99 CALM      29.57R
NORTHERLY ISL    N/A     52  42  69 S5          N/A
$$

LMZ740>746-220300-
SOUTHERN LAKE MICHIGAN

STATION/POSITION SKY/WX   TEMP    WIND        PRES    VSBY  WAVE
                          AIR SEA DIR/SP/G                  HT/PER
                          (F)     (DEG/KT/KT) (MB)    (MI)  (FT/S)
HARRISON CRIB              56     240/  8/  9   N/A
BURNHAM HARBOR             51     190/  3/  6   N/A
CALUMET HARBOR             50     250/  2/  2 1000.9R
BURNS HARBOR               53     220/  6/  9 1002.0R
MICHIGAN CITY              55     180/  6/  7   N/A
$$

ILZ025>027-034>036-040-047-049-050-058-095>099-220300-
WEST-CENTRAL ILLINOIS

CITY           SKY/WX    TMP DP  RH WIND       PRES   REMARKS
QUINCY         CLOUDY    46  43  89 N8        29.56R
GALESBURG*     FOG       35  35 100 CALM      29.57S VSB 1/4
MACOMB*        CLEAR     39  38  98 NW3       29.59S FOG
JACKSONVILLE*  CLOUDY    47  41  81 CALM      29.57R
PITTSFIELD*    CLOUDY    48  43  82 CALM      29.56S
$$

ILZ028>032-037-038-041>044-048-051>054-059>061-220300-
CENTRAL ILLINOIS

CITY           SKY/WX    TMP DP  RH WIND       PRES   REMARKS
PONTIAC        PTCLDY    46  44  93 CALM      29.58R
BLOOMINGTON    MOCLDY    49  42  77 CALM      29.58R
DECATUR        CLOUDY    49  47  93 CALM      29.56R
PEORIA         CLEAR     46  43  89 CALM      29.57R
LACON*         PTCLDY    43  41  94 NW3       29.57R
LINCOLN*       PTCLDY    46  44  91 CALM      29.57S
SPRINGFIELD    MOCLDY    49  43  80 N3        29.57R
TAYLORVILLE    MOCLDY    51  48  90 CALM      29.56R
$$

ILZ033-039-045-046-055>057-062-063-220300-
EAST-CENTRAL ILLINOIS

CITY           SKY/WX    TMP DP  RH WIND       PRES   REMARKS
CHAMPAIGN      PTCLDY    52  46  80 S5        29.57R
RANTOUL*       CLOUDY    50  48  92 CALM      29.57R
MATTOON        PTCLDY    54  50  86 S6        29.56R
PARIS*         PTCLDY    49  49  97 CALM      29.58S
$$

ILZ079-100>102-220300-
SOUTHWEST ILLINOIS

CITY           SKY/WX    TMP DP  RH WIND       PRES   REMARKS
ALTON          PTCLDY    52  46  82 SE3       29.55R
BELLEVILLE     CLOUDY    59  56  89 VRB3      29.54R
CAHOKIA*       CLOUDY    56  45  66 CALM      29.54R
SPARTA*        CLOUDY    60  54  78 S7        29.57S
$$

ILZ064>066-069>071-074>076-080>082-084>086-088>090-092>094-220300-
SOUTH-CENTRAL ILLINOIS

CITY           SKY/WX    TMP DP  RH WIND       PRES   REMARKS
CARBONDALE     CLOUDY    55  52  89 E3        29.57S
CAIRO*         CLOUDY    55  52  91 CALM      29.57F
EFFINGHAM*     PTCLDY    58  52  83 SE3       29.58S
MARION         CLOUDY    59  52  77 CALM      29.59S
MT. VERNON     PTCLDY    54  50  86 CALM      29.58R
CENTRALIA*     CLOUDY    60  55  83 S8        29.56S
SALEM*         CLOUDY    61  53  73 S8        29.57R
METROPOLIS*    CLOUDY    58  51  79 CALM      29.59S
$$

ILZ067-068-072-073-078-083-087-091-220300-
SOUTHEAST ILLINOIS

CITY           SKY/WX    TMP DP  RH WIND       PRES   REMARKS
LAWRENCEVILLE  PTCLDY    53  50  89 S8        29.58S
FLORA*         CLOUDY    56  52  85 S5        29.58R
FAIRFIELD*     CLOUDY    58  51  78 CALM      29.57R
HARRISBURG*    MOCLDY    56  51  82 CALM      29.59R
ROBINSON*      CLEAR     52  49  89 S5        29.58S
CARMI*         CLOUDY    56  51  85 S7        29.58S
$$

ABBREVIATIONS USED IN REMARKS
   TC - TEMPERATURE IN CELSIUS
  WCI - WIND CHILL INDEX
   HX - HEAT INDEX
  VSB - VISIBILITY
$$





USA.gov is the U.S. government's official web portal to all federal, state and local government web resources and services.